Regional Weather Roundup
Issued by NWS Northern Indiana

Home | Current Version | Previous Version | Text Only | Print | Product List | Glossary Off
Versions: 1 2 3 4 5 6 7 8 9 10 11 12 13 14 15 16 17 18 19 20 21 22 23 24 25 26 27 28 29 30 31 32 33 34 35 36 37 38 39 40 41 42 43 44 45 46 47 48 49 50

000
ASUS43 KIWX 262210
RWRIWX

KIWX WEATHER ROUNDUP
NATIONAL WEATHER SERVICE NORTHERN INDIANA
500 PM EST SUN FEB 26 2017

NOTE: "FAIR" INDICATES FEW OR NO CLOUDS BELOW 12,000 FEET WITH NO
SIGNIFICANT WEATHER AND/OR OBSTRUCTIONS TO VISIBILITY.

* THESE STATIONS ARE NOT UNDER NWS QUALITY CONTROL. THEY ALSO MAY NOT
  REPORT WEATHER SUCH AS PRECIPITATION OR FOG.

INZ001>027-262300-
NORTHERN INDIANA

CITY           SKY/WX    TMP DP  RH WIND       PRES   REMARKS
GARY*          MOSUNNY   48  12  23 SW20G32   29.97R
VALPARAISO     CLOUDY    49  19  30 SW23G30   29.98S
MICHIGAN CITY* PTSUNNY   45  21  39 SW18G24   29.98R
LAPORTE*       PTSUNNY   46  20  35 SW17G28   29.98S
KNOX*          CLOUDY    45  -9  10 SW16G22   29.99S
SOUTH BEND     CLOUDY    45  19  35 SW18G26   29.98R
ELKHART*       SUNNY     45  19  36 SW10G23   29.98S
GOSHEN         PTSUNNY   44  20  38 SW21G28   29.99S
MONTICELLO*    SUNNY     46  17  30 SW21G26   30.02S
LOGANSPORT*    SUNNY     45  21  39 SW16G28   30.05R
ROCHESTER*     MOSUNNY   46  18  31 SW17G25   30.03R
WARSAW*        MOSUNNY   43  19  39 SW10G21   30.02R
ANGOLA*        SUNNY     43  30  61 SW17      29.99S
FORT WAYNE     MOSUNNY   44  19  36 SW23      30.04S
HUNTINGTON*    SUNNY     44  19  36 SW15G25   30.05S
PERU/GRISSOM   SUNNY     45  19  34 SW23G29   30.03R
MARION*        SUNNY     42  21  44 SW17G26   30.07S

$$
INZ028>050-262300-
CENTRAL INDIANA

CITY           SKY/WX    TMP DP  RH WIND       PRES   REMARKS
LAFAYETTE      SUNNY     44  18  35 SW15G24   30.05S
KOKOMO*        SUNNY     45  19  35 SW21G28   30.07R
MUNCIE*        MOSUNNY   45  12  26 SW13G25   30.07S
INDIANAPOLIS   CLOUDY    45  14  28 SW15      30.09S

$$
MIZ043>046-050>051-056>058-064>065-071>073-077>080-262300-
SOUTHWEST LOWER MICHIGAN

CITY           SKY/WX    TMP DP  RH WIND       PRES   REMARKS
BATTLE CREEK   SUNNY     42  21  43 SW22      29.94S
BENTON HARBOR  SUNNY     46  20  35 SW23      29.95S
COLDWATER*     SUNNY     42  19  40 SW17G30   29.98R
HILLSDALE*     MOSUNNY   39  21  48 SW18G25   29.98R
HOLLAND        SUNNY     43  26  51 SW18G29   29.92S
GRAND RAPIDS   MOSUNNY   42  20  41 SW29G39   29.91R
KALAMAZOO      MOSUNNY   45  19  35 SW17G31   29.95S
STURGIS*       MOSUNNY   43  23  45 SW18G29   29.98R
THREE RIVERS*  PTSUNNY   44  20  39 SW15G21   29.97S

$$
OHZ001>008-015>018-024>025-262300-
NORTHWEST OHIO

CITY           SKY/WX    TMP DP  RH WIND       PRES   REMARKS
WAUSEON*       FAIR      43  19  39 SW21G30   30.01S
DEFIANCE       SUNNY     42  20  41 SW17G26   30.04R
FINDLAY        MOSUNNY   44  21  40 S22       30.06S
TOLEDO EXPRESS SUNNY     42  17  36 SW23G33   30.02S
TOLEDO METCALF MOSUNNY   44  19  36 SW17G31   30.04S
LIMA           SUNNY     43  21  41 S18G25    30.07S

$$
AND FOR LAKE MICHIGAN COASTAL AND OPEN LAKE BUOY OBSERVATIONS

STATION/POSITION TEMP    WIND        PRES    VSBY  WAVE
                 AIR SEA DIR/SP/G                  HT/PER
                 (F)     (DEG/KT/KT) (MB)    (MI)  (FT/S)
CALUMET HARBOR    48     220/  9/ 15 1013.7R
MICHIGAN CITY     44     220/ 19/ 20   N/A
BURNS HARBOR      46     220/ 16/ 26 1015.2R

$$
&&



USA.gov is the U.S. government's official web portal to all federal, state and local government web resources and services.